{"data":{"norad_id":66593,"intl_designator":"2025-270F","name":"STARLINK-36031","alt_names":[],"object_type":"PAYLOAD","status":"ACTIVE","operator":null,"country":"US","launch_date":"2025-11-22","launch_site_code":"AFETR","launch_vehicle":null,"mission":null,"orbit_class":"UNKNOWN","rcs_meters":null,"size_class":null,"mass_kg":null,"dimensions":null,"purposes":["comms"],"wikipedia_slug":null,"has_3d_model":false,"image_url":null,"decayed_at":null,"tle_current":{"epoch":"2026-05-24T23:11:22.202016Z","epoch_age_seconds":75057,"freshness":"FRESH","line1":"1 66593U 25270F   26144.96622919  .00014734  00000+0  54368-3 0  9993","line2":"2 66593  43.0008 345.2185 0001633 270.0394  90.0270 15.27592194 29376","mean_motion":15.27592194,"eccentricity":0.0001633,"inclination_deg":43.0008,"raan_deg":345.2185,"arg_perigee_deg":270.0394,"mean_anomaly_deg":90.027,"bstar":0.00054368,"rev_number":2937,"period_min":94.265996229619,"perigee_km":481.89215733286,"apogee_km":484.13300878669,"semimajor_km":6861.1495830598,"source":"CELESTRAK","updated_at":"2026-05-25T13:38:21.287727Z"}}}